This is the latest recevied weather packets stored in our database for station/object N3WMC. If no packets are shown the sender has not sent any weather packets the latest 10 day(s).
| Time | Temp. | Humidity | Pressure | Rain* | Wind** | Luminosity | Snow |
|---|---|---|---|---|---|---|---|
| 1787403147 | 20° C | 79% | 1016.9 hPa | 0 mm | - | 304 W/m² | - |
| 1787402843 | 20° C | 81% | 1016.9 hPa | 0 mm | - | 291 W/m² | - |
| 1787402538 | 18.33° C | 85% | 1016.7 hPa | 0 mm | - | 278 W/m² | - |
| 1787402237 | 18.33° C | 85% | 1016.9 hPa | 0 mm | - | 274 W/m² | - |
| 1787401933 | 17.22° C | 89% | 1016.9 hPa | 0 mm | - | 259 W/m² | - |
| 1787401629 | 16.67° C | 90% | 1016.9 hPa | 0 mm | - | 96 W/m² | - |
| 1787401324 | 16.67° C | 91% | 1017.1 hPa | 0 mm | - | 82 W/m² | - |
| 1787401019 | 16.67° C | 92% | 1017 hPa | 0 mm | - | 69 W/m² | - |
| 1787400715 | 16.11° C | 96% | 1017 hPa | 0 mm | - | 100 W/m² | - |
| 1787400414 | 15.56° C | 97% | 1017.2 hPa | 0 mm | - | 105 W/m² | - |
| 1787400110 | 16.11° C | 99% | 1017.3 hPa | 0 mm | - | 77 W/m² | - |
| 1787399807 | 16.11° C | 99% | 1017.3 hPa | 0 mm | - | 69 W/m² | - |
| 1787399503 | 15° C | 99% | 1017.3 hPa | 0 mm | - | 78 W/m² | - |
| 1787399202 | 15° C | 99% | 1017.2 hPa | 0 mm | - | 68 W/m² | - |
| 1787398897 | 15° C | 99% | 1016.9 hPa | 0 mm | - | 61 W/m² | - |
| 1787398592 | 14.44° C | 99% | 1016.9 hPa | 0 mm | - | 65 W/m² | - |
| 1787398288 | 13.89° C | 99% | 1017.2 hPa | 0 mm | - | 66 W/m² | - |
| 1787397984 | 13.89° C | 99% | 1017.2 hPa | 0 mm | - | 53 W/m² | - |
| 1787397678 | 13.89° C | 99% | 1017.3 hPa | 0 mm | - | 38 W/m² | - |
| 1787397378 | 13.89° C | 99% | 1017 hPa | 0 mm | - | 31 W/m² | - |
| 1787397073 | 13.89° C | 99% | 1017.1 hPa | 0 mm | - | 26 W/m² | - |
| 1787396769 | 13.33° C | 99% | 1017.1 hPa | 0 mm | - | 22 W/m² | - |
| 1787396465 | 13.33° C | 99% | 1017.1 hPa | 0 mm | - | 18 W/m² | - |
| 1787396164 | 13.33° C | 99% | 1016.8 hPa | 0 mm | - | 14 W/m² | - |
| 1787395859 | 13.33° C | 99% | 1016.7 hPa | 0 mm | - | 10 W/m² | - |
* Rain latest hour (hover to see other rain measurements)
** Current wind speed in m/s (hover to see current wind gust speed)